FENGYUN 1C DEB, 30345

Orbit data source: Space-Track

FENGYUN 1C DEB, 30345 is space debris in SSO originally from a launch on Mon, 10 May 1999 UTC launched from the Taiyaun Space Center, China (TSC). Fengyun 1C debris stems from the Chinese weather satellite Fengyun-1C, which was intentionally destroyed by a Chinese anti-satellite missile in 2007. This event dramatically increased the amount of space debris, with thousands of trackable fragments posing hazards to satellites and human spaceflight. The Fengyun 1C debris cloud has become a focal point in discussions about space sustainability and the need for international regulations to prevent the creation of new debris.

Loading next visibility...
Identifier
30345, 1999-025ABG
Orbit
SSO
Country
Flag of CNCN / PRC
Related business
Manufacturer
Unknown
Mission
Spacecraft
Bus & Motor
Unknown
Mass
Unknown
Launch date (UTC)
1999-05-10 (26 years ago)
Launch vehicle
Unknown
Launch site
Taiyaun Space Center, China (TSC)
Object type
Payload
Rocket body
Debris
Shape & HBR
Unknown shape, 0.1 m
Radar Cross Section
Small (<0.1 m²)

Expand to show TLE details & history
Last TLE update: 1 day ago

TLE from 1 day ago
0 FENGYUN 1C DEB
1 30345U 99025ABG 25291.11408725  .00009971  00000-0  31306-2 0  9998
2 30345  98.9255 348.0702 0016632  57.9579 302.3222 14.40636832969723
Epoch: 2025-10-18T02:44Z
TLE epoch observation values (Epoch: 2025-10-18T02:44:17.138Z)
Latitude
0.00007°
Longitude
-79.85097°
Altitude
752.999 km
Speed
7.481 km/s
True Right ascension
23h 12m 16s
True Declination
0° 00' 00"
Sunlit
Object was in full shadow at epoch
Visualization orbit readout
Latitude
Unknown
Longitude
Unknown
Altitude
Unknown
Speed
Unknown
Apparent Right ascension
Unknown
Apparent Declination
Unknown
Sunlit
N/A
Visualization observer readout
Local Sidereal Time
21:20:07
Azimuth
Unknown
Elevation
Unknown
Doppler factor
Unknown
Orbital elements
Apogee altitude
765.398 km
Perigee altitude
741.675 km
Semi-major axis
7,131.674 km
Eccentricity
0.00166
Inclination
98.9255°
RAAN
348.0702°
Arg. of periapsis
57.9579°
True anomaly
302.16096°
Mean anomaly
302.3222°
Eccentric anomaly
302.2416°
Mean motion
3.60376 °/min
Orbital period
99.9 mins
BSTAR
0.0031306
Loading maneuver chart data...
Computing Atmospheric mass density...

Documentation

Showing up to 5 results
|